Weather in Cienfuegos

Cuba     22°08′50″N   80°26′34″W
temp.,
°C
wind,
m/s
gust,
m/s
humid.,
%
clouds,
%
prec.,
mm/h
press.,
hPa
HPBL,
m
17 april, sat
sat1723:00+22ssw35820 0.0 101488
02:00+21sse22870 0.0 101317
05:00+20sse22890 0.0 101232
08:00+23sse27760 0.0 1014292
11:00+30s78470 0.0 10151176
14:00+32ssw78430 0.0 10131302
17:00+31ssw67440 0.0 10121067
20:00+25ssw46780 0.0 1013203
18 april, sun
sun1823:00+23ssw22932 0.0 101524
02:00+22sse11945 0.0 101411
05:00+21e11913 0.0 101412
08:00+23ese11790 0.0 101588
11:00+32s45420 0.0 10151304
14:00+34s88405 0.0 10131442
17:00+31s78501 0.0 10121202
20:00+26s4879100 0.0 1014491
19 april, mon
mon1923:00+24sse229017 0.0 101526
02:00+23ese228846 0.0 101539
05:00+22s118779 0.0 101415
08:00+25sse278129 0.0 1016316
11:00+32s79400 0.0 10161465
14:00+33s9104014 0.0 10151469
17:00+31s894631 0.0 10131143
20:00+26s47791 0.0 1014340
20 april, tue
tue2023:00+24ssw22930 0.0 101640
02:00+23se22935 0.0 101631
05:00+21ese11895 0.0 101415
08:00+24se22725 0.0 1016107
11:00+32s784711 0.0 10161426
14:00+33s91039100 0.0 10151394
17:00+30s775211 0.0 10141215
20:00+26sw35765 0.0 1015150
21 april, wed
wed2123:00+23sw11935 0.0 101614
02:00+22se11955 0.0 101611
05:00+22sse11955 0.0 101511
08:00+23sse11875 0.0 1017101
11:00+31ssw44455 0.0 10171326
14:00+34ssw66326 0.0 10151654
17:00+32ssw6635100 0.0 10151289
20:00+26ssw3570100 0.0 1016165